Wind_Gust
6 6 7 7 7 7 10 9 7 8 5 4 5 3 2 5 5 3 4 8 6 7 6 7 7 7 7 8 7 8 8 7 8 8 8 8 9 9 10 10 9 8
6 6 6 6 6 5 6 8 8 8 7 5 4 2 4 3 5 2 6 6 6 7 6 7 7 7 8 8 8 9 8 8 9 9 8 10 8 8 9 9 8 7
7 6 8 9 10 8 8 7 8 7 7 6 4 3 4 3 4 4 6 6 7 7 7 7 7 7 8 8 8 8 8 9 9 8 9 9 8 9 8 7 8 9
6 8 9 8 8 9 8 9 5 5 3 3 3 2 3 4 2 2 6 6 7 6 6 8 8 7 8 8 8 9 8 8 7 6 8 8 9 8 9 8 8 9
9 7 7 7 5 6 7 8 7 6 5 5 2 2 4 5 4 3 5 6 6 6 8 8 8 8 7 8 8 9 8 8 8 8 10 10 9 9 8 9 9 10
5 7 8 9 9 10 9 8 8 7 6 3 4 3 3 3 5 4 5 6 6 7 7 7 8 8 8 8 9 9 8 10 8 9 10 9 8 10 9 9 9 11
9 9 9 8 9 9 10 8 7 6 7 6 4 2 2 4 5 5 6 7 7 8 7 7 7 8 7 8 9 8 9 8 8 9 10 8 8 10 9 9 9 9
9 8 10 10 10 8 9 8 7 7 6 4 4 2 2 3 6 5 6 8 8 8 8 8 8 8 7 8 10 10 8 8 8 9 9 8 8 10 9 8 7 9
9 8 9 10 10 8 8 8 8 7 5 6 5 2 3 3 6 8 7 8 9 8 8 8 8 8 7 9 10 10 10 8 8 9 9 8 9 8 8 7 9 9
10 9 9 9 10 9 9 8 8 7 6 6 4 4 5 5 6 9 8 8 8 8 8 8 8 8 8 8 9 11 11 9 8 8 8 8 8 8 8 8 7 8
9 10 11 10 10 9 9 8 8 8 6 6 6 6 6 6 6 7 8 7 8 8 9 8 8 8 10 10 9 9 10 10 9 8 8 8 8 8 9 7 9 9
10 10 11 12 10 10 10 10 10 8 8 5 6 7 6 5 8 6 8 9 7 8 9 9 8 9 9 10 10 10 11 10 9 9 8 8 8 8 8 8 8 8
12 12 12 11 11 11 10 10 10 9 8 8 6 7 7 7 7 9 5 8 8 8 9 9 9 9 10 10 10 10 11 11 10 9 9 8 8 8 8 8 8 8
13 12 12 13 12 11 11 10 10 9 9 7 8 8 8 8 9 9 7 8 8 9 8 8 9 9 9 9 9 11 12 10 10 9 9 9 9 9 9 9 9 9
14 11 11 11 12 12 11 11 11 10 8 8 8 7 8 8 8 10 11 9 7 8 9 7 10 11 10 11 11 10 11 12 10 9 10 11 10 10 10 10 9 10
14 12 13 12 12 13 13 12 11 10 10 9 9 8 8 9 9 7 10 11 11 8 8 7 7 8 11 14 12 13 12 12 10 8 8 9 11 10 10 10 10 10
13 13 13 14 14 13 12 12 12 11 10 9 9 9 10 10 9 10 9 8 10 11 10 7 7 7 13 14 14 16 14 13 13 9 8 9 9 10 10 9 9 9
14 13 14 14 13 14 14 13 12 11 11 10 11 10 9 9 10 10 10 9 8 8 9 9 8 8 13 16 16 16 14 15 13 12 10 9 9 9 8 8 9 9
14 16 16 15 15 14 14 13 13 12 12 11 13 12 10 12 12 11 11 9 10 11 9 8 8 8 13 16 17 16 15 14 12 11 11 9 9 9 9 8 7 8
16 16 16 16 15 14 14 14 14 15 14 13 12 10 13 11 10 12 10 11 11 11 10 8 8 9 13 15 16 16 15 12 10 10 9 9 9 8 8 8 8 9
16 17 17 15 14 15 15 16 16 13 13 13 15 15 15 15 15 13 12 11 10 9 10 9 8 10 13 14 17 17 16 10 10 8 8 8 7 7 9 9 8 9
18 17 17 15 15 15 16 17 16 17 17 14 14 12 9 9 8 10 12 12 10 10 10 9 8 9 13 14 17 17 15 11 10 10 9 8 7 6 6 7 8 10
18 18 17 16 16 16 18 19 19 17 15 15 15 14 14 13 15 13 13 13 12 11 12 10 10 9 12 15 16 18 12 11 11 10 9 9 8 6 7 7 7 7
18 19 18 17 18 21 21 21 20 16 16 16 18 17 15 15 14 12 11 13 14 14 14 13 11 11 13 15 16 18 15 15 12 12 10 8 7 5 6 6 7 12
18 18 18 19 24 23 22 20 19 19 15 14 14 15 16 14 13 14 12 10 11 13 16 15 13 11 13 15 17 19 16 13 14 13 12 9 9 8 5 7 6 9
18 19 20 22 23 22 22 19 17 18 21 20 14 14 14 14 13 14 15 13 11 10 13 12 13 11 13 15 18 19 17 15 12 15 13 11 9 11 10 7 7 7
Wind_Speed
4 4 5 4 4 4 6 5 4 4 3 2 2 1 1 3 4 2 3 5 4 4 4 4 4 4 4 4 4 5 5 4 5 4 4 5 5 6 6 6 5 4
4 4 3 3 3 3 3 4 5 4 4 3 2 1 2 2 4 2 5 4 4 5 4 4 5 4 5 5 5 5 5 5 6 4 5 7 5 5 6 6 5 4
5 4 5 6 6 5 5 4 4 3 3 2 1 1 2 1 2 3 4 4 4 4 4 4 5 4 5 5 5 5 5 5 6 5 5 5 4 5 4 4 4 6
4 5 6 5 5 6 5 5 3 2 2 2 1 0 1 2 2 2 4 4 4 4 4 5 5 4 5 5 5 5 5 5 4 3 5 4 5 4 5 4 4 4
6 5 4 5 4 4 5 5 5 4 3 2 0 1 1 2 2 3 4 4 4 4 4 4 5 5 4 5 5 5 4 4 5 4 5 6 5 4 4 4 5 6
4 4 5 6 6 6 6 6 5 5 4 2 2 1 2 1 3 3 4 5 4 4 5 4 5 5 4 5 5 5 4 5 5 4 6 5 5 4 4 4 5 6
6 6 6 5 6 5 6 5 4 3 4 3 1 0 1 1 4 3 4 5 5 5 5 4 5 5 4 4 5 5 5 5 5 5 5 4 4 6 5 5 5 5
6 4 6 6 6 6 5 5 5 4 4 3 3 1 1 2 4 4 4 5 5 5 5 5 5 5 4 4 5 5 5 4 4 5 5 5 5 6 5 4 4 5
6 5 5 6 7 5 5 6 5 4 3 4 3 2 2 2 4 5 5 5 5 5 5 5 5 5 4 5 5 5 5 5 4 5 5 5 6 5 5 3 4 5
6 6 6 6 6 6 6 5 5 5 4 4 3 3 4 2 4 6 5 5 6 5 5 5 5 5 5 5 5 4 5 5 4 5 4 4 4 4 4 4 4 4
6 6 6 6 6 6 6 6 5 5 4 4 4 4 4 4 3 5 5 5 5 5 5 5 5 5 5 5 5 4 5 5 5 5 5 4 4 4 4 4 4 5
7 6 7 7 7 6 7 7 6 5 5 3 4 5 4 4 5 3 4 5 5 5 5 5 5 5 5 5 5 4 5 5 5 5 5 5 4 4 4 4 5 5
8 8 7 7 7 7 6 6 6 6 6 5 4 5 5 4 4 5 4 5 5 5 5 5 6 5 6 5 5 5 6 6 6 6 5 5 5 5 5 5 5 4
8 8 7 7 7 7 7 7 6 6 6 4 5 5 5 6 6 6 5 5 5 5 5 5 6 6 5 6 5 5 6 6 5 5 5 5 6 6 5 5 5 5
8 7 6 6 7 7 7 7 7 6 5 5 5 5 4 5 6 6 7 6 4 5 6 5 5 5 5 6 6 6 6 6 5 5 5 6 6 6 6 6 6 5
8 7 7 7 7 7 7 7 7 6 6 6 6 6 5 5 6 5 6 7 7 5 5 5 4 4 4 7 6 7 7 6 5 5 5 5 6 6 6 6 6 6
7 7 7 8 8 8 7 8 8 7 6 6 6 6 7 6 6 7 6 6 7 7 6 5 4 4 7 8 9 10 8 6 6 5 5 5 5 6 6 6 5 6
8 8 8 9 8 8 8 8 7 7 7 7 6 7 6 6 7 7 7 6 5 6 6 5 5 6 10 9 10 10 8 7 6 6 5 5 5 6 5 5 5 5
8 9 9 9 9 9 8 8 8 8 7 7 8 7 6 7 7 7 7 6 6 7 6 5 5 7 11 10 10 10 11 8 6 6 6 5 5 5 5 5 5 5
8 9 9 9 9 8 8 9 9 9 8 7 6 6 7 7 7 8 7 7 7 7 6 5 6 7 11 11 10 10 11 8 6 6 5 5 5 5 4 4 4 5
9 9 10 9 9 9 9 10 10 8 8 8 8 9 8 8 9 8 7 7 6 6 6 6 5 9 11 12 11 10 10 7 6 5 5 5 4 3 4 4 4 5
10 10 9 8 9 9 10 11 10 10 11 8 8 7 6 5 5 6 7 7 6 7 6 6 5 8 11 12 11 10 9 5 6 6 6 5 4 3 3 2 3 5
10 10 10 9 10 10 11 11 11 11 9 8 9 8 8 7 8 7 7 7 8 7 7 6 6 7 10 12 12 12 8 5 5 5 5 5 5 3 3 3 3 3
10 11 10 10 10 12 12 13 11 9 9 8 9 9 9 8 7 6 6 7 8 9 8 8 7 7 11 12 13 14 9 8 6 6 6 5 4 2 2 3 4 6
9 10 10 10 12 12 11 7 5 4 3 2 4 6 7 6 6 7 6 5 6 7 10 9 7 7 11 13 14 15 10 6 7 6 6 5 5 4 2 3 3 4
8 10 11 11 13 12 7 10 10 10 12 12 9 7 7 7 7 7 8 7 6 6 7 7 8 7 9 12 14 15 14 8 7 7 7 6 5 5 5 4 4 4
Wind_Direction
149 148 149 163 169 164 159 158 176 163 198 162 114 131 264 293 323 334 23 47 38 36 7 28 34 37 30 44 41 51 43 42 44 21 29 32 25 12 16 7 14 23
160 146 126 128 135 140 162 164 167 169 181 174 179 211 277 303 323 30 54 47 39 34 22 40 43 41 38 40 37 50 31 28 37 8 35 35 18 21 18 10 12 355
144 138 143 158 169 174 166 162 160 171 149 180 153 178 273 302 340 38 73 75 52 47 37 30 44 39 51 52 53 53 40 31 30 4 44 35 18 28 11 359 22 23
170 169 169 170 167 162 157 143 152 143 120 109 148 229 281 322 37 61 67 63 74 64 58 48 41 37 42 51 59 57 47 49 25 18 53 37 24 24 16 6 22 30
174 176 166 155 148 141 146 152 168 176 148 167 10 359 18 1 62 73 85 68 81 79 63 59 49 43 45 52 53 56 34 37 20 25 50 45 16 22 16 23 26 33
183 168 162 158 158 154 160 169 177 168 155 143 200 325 327 2 97 118 113 99 84 84 74 65 60 47 49 62 64 56 38 37 15 28 51 40 19 22 23 24 34 40
179 165 160 154 150 164 162 165 171 164 156 174 120 19 341 85 118 127 115 112 96 74 72 69 68 55 42 65 69 63 41 42 27 32 50 31 26 25 21 26 30 41
189 179 152 152 153 164 159 163 173 167 157 135 146 222 94 119 119 114 105 105 100 94 83 79 75 68 52 66 75 69 49 32 31 32 42 30 27 31 8 17 14 42
166 167 160 162 155 161 162 169 179 158 158 152 187 150 50 124 127 117 113 108 101 98 97 83 78 72 53 66 67 77 74 49 38 46 41 31 35 22 5 350 33 40
170 170 164 166 162 167 170 176 173 169 157 161 172 116 95 69 111 118 114 113 110 102 98 102 90 84 72 62 65 70 74 64 47 51 51 43 44 27 17 18 29 43
171 165 169 172 168 163 169 170 178 168 168 164 141 104 115 109 86 111 116 119 124 127 116 111 113 104 93 76 68 67 78 74 63 59 52 54 41 34 39 36 41 52
174 171 177 179 168 166 169 175 175 174 171 166 145 130 97 104 129 126 134 126 119 122 118 117 111 103 98 95 83 74 73 70 68 64 61 56 51 47 41 34 46 42
179 185 181 176 172 171 169 168 175 177 167 175 154 141 133 121 114 118 108 122 118 114 123 126 116 106 104 98 88 80 76 75 71 68 61 55 56 53 49 45 44 41
191 188 180 176 172 168 168 174 174 173 181 163 142 143 145 147 145 133 124 118 129 123 127 129 120 115 109 102 93 91 92 80 79 83 79 67 62 52 43 46 46 41
185 188 178 166 166 167 170 176 178 180 174 158 155 149 143 144 140 137 132 120 115 129 132 133 135 138 143 133 119 102 98 95 89 87 90 86 68 58 41 37 32 38
182 174 169 166 165 174 179 174 176 178 173 163 160 150 141 140 137 140 145 150 142 134 136 145 147 143 156 148 137 134 120 111 101 87 88 82 82 74 55 43 36 28
171 174 166 172 178 180 176 173 177 175 176 166 156 152 153 157 147 147 159 163 157 153 155 164 156 172 149 142 139 131 126 125 115 107 90 88 84 83 81 64 50 51
179 171 175 181 177 180 177 180 172 173 178 169 162 158 163 154 160 168 164 163 151 152 160 171 172 170 150 156 149 143 136 130 127 121 110 105 102 99 95 85 74 54
175 179 184 181 184 178 176 173 175 178 180 169 178 177 153 168 176 161 171 168 158 161 173 177 175 162 158 161 159 152 142 132 134 127 127 125 122 118 108 99 88 76
179 184 189 190 181 175 173 177 180 187 186 179 168 161 172 173 169 175 169 171 173 173 171 170 174 169 164 164 166 161 152 143 136 140 136 140 141 134 123 113 104 106
186 190 196 189 181 177 178 184 187 185 182 180 172 176 178 179 177 178 185 178 174 166 160 170 189 170 169 167 169 167 159 140 135 134 139 146 142 127 131 123 115 115
189 195 195 188 182 182 184 188 189 188 186 180 174 181 186 175 183 173 176 180 176 166 165 176 185 175 174 172 168 166 163 143 146 147 155 162 161 161 133 117 125 125
193 193 195 189 187 185 192 193 190 193 190 173 172 180 176 184 183 183 182 176 173 174 176 185 187 191 185 175 170 165 162 147 150 140 157 169 186 184 158 150 138 139
195 193 194 194 186 198 199 200 195 188 182 174 176 175 186 189 179 176 176 181 179 184 184 177 198 186 185 179 172 172 171 163 164 158 162 177 173 157 160 156 169 171
195 194 195 194 199 206 205 169 153 157 88 144 187 179 186 176 174 174 173 185 202 193 189 182 185 188 184 181 177 176 175 162 157 152 158 178 171 166 176 145 210 192
196 196 198 198 206 209 166 171 173 153 177 188 184 181 175 177 178 179 176 189 191 194 205 186 179 187 185 185 181 180 179 161 161 153 172 176 175 174 166 192 202 228